Location: Katp?dip?lem
(16.6502°N, 80.5643°E)
Time: 17:02:28
(UTC+00:00)

FALCON 9 R/B - Pass Details

Date: 14 April 2024
Orbit: 191 x 12264 km, 27.0° (Epoch: 27 May)

Event Time Altitude Azimuth Distance (km) Brightness Sun altitude
Exits shadow 00:01:41 - 247° (WSW) 14,868 7.6 -5.9°
Reaches altitude 10° 00:16:04 10° 248° (WSW) 12,309 7.2 -2.5°
Maximum altitude 00:54:05 78° 336° (NNW) 2,126 4.1 6.5°
Drops below altitude 10° 01:00:49 10° 63° (ENE) 2,769 6.3 8.1°
Sets 01:02:20 0° 65° (ENE) 3,304 6.7 8.5°
